Probability
0 0 0 0 0 0 0 0 0 0 0 0 0 0 0 0 0 0 0 0 0 0 0 0 0 0 0 0 0 0 0 0 0 0 0 0 0 0 0 0 0 0 0 0
0 0 0 0 0 0 0 0 0 0 0 0 0 0 0 0 0 0 0 0 0 0 0 0 0 0 0 0 0 0 0 0 0 0 0 0 0 0 0 0 0 0 0 0
0 0 0 0 0 0 0 0 0 0 0 0 0 0 0 0 0 0 0 0 0 0 0 0 0 0 0 0 0 0 0 0 0 0 0 0 0 0 0 0 0 0 0 0
0 0 0 0 0 0 0 0 0 0 0 0 0 0 0 0 0 0 0 0 0 0 0 0 0 0 0 0 0 0 0 0 0 0 0 0 0 0 0 0 0 0 0 0
0 0 0 0 0 0 0 0 0 0 0 0 0 0 0 0 0 0 0 0 0 0 0 0 0 0 0 0 0 0 0 0 0 0 0 0 0 0 0 0 0 0 0 0
0 0 0 0 0 0 0 0 0 0 0 0 0 0 0 0 0 0 0 0 0 0 0 0 0 0 0 0 0 0 0 0 0 0 0 0 0 0 0 0 0 0 0 0
0 0 0 0 0 0 0 0 0 0 0 0 0 0 0 0 0 0 0 0 0 0 0 0 0 0 0 0 0 0 0 0 0 0 0 0 0 0 0 0 0 0 0 0
0 0 0 0 0 0 0 0 0 0 0 0 0 0 0 0 0 0 0 0 0 0 0 0 0 0 0 0 0 0 0 0 0 0 0 0 0 0 0 0 0 0 0 0
0 0 0 0 0 0 0 0 0 0 0 0 0 0 0 0 0 0 0 0 0 0 0 0 0 0 0 0 0 0 0 0 0 0 0 0 0 0 0 0 0 0 0 0
0 0 0 0 0 0 0 0 0 0 0 0 0 0 0 0 0 0 0 0 0 0 0 0 0 0 0 0 0 0 0 0 0 0 0 0 0 0 0 0 0 0 0 0
0 0 0 0 0 0 0 0 0 0 0 0 0 0 0 0 0 0 0 0 0 0 0 0 0 0 0 0 0 0 0 0 0 0 0 0 0 0 0 0 0 0 0 0
0 0 0 0 0 0 0 0 0 0 0 0 0 0 0 0 0 0 0 0 0 0 0 0 0 0 0 0 0 0 0 0 0 0 0 0 0 0 0 0 0 0 0 0
0 0 0 0 0 0 0 0 0 0 0 0 0 0 0 0 0 0 0 0 0 0 0 0 0 0 0 0 0 0 0 0 0 0 0 0 0 0 0 0 0 0 0 0
0 0 0 0 0 0 0 0 0 0 0 0 0 0 0 0 0 0 0 0 0 0 0 0 0 0 0 0 0 0 0 0 0 0 0 0 0 0 0 0 0 0 0 0
0 0 0 0 0 0 0 0 0 0 0 0 0 0 0 0 0 0 0 0 0 0 0 0 0 0 0 0 0 0 0 0 0 0 0 0 0 0 0 0 0 0 0 0
0 0 0 0 0 0 0 0 0 0 0 0 0 0 0 0 0 0 0 0 0 0 0 0 0 0 0 0 0 0 0 0 0 0 0 0 0 0 0 0 0 0 0 0
0 0 0 0 0 0 0 0 0 0 0 0 0 0 0 0 0 0 0 0 0 0 0 0 0 0 0 0 0 0 0 0 0 0 0 0 0 0 0 0 0 0 0 0
0 0 0 0 0 0 0 0 0 0 0 0 0 0 0 0 0 0 0 0 0 0 0 0 0 0 0 0 0 0 0 0 0 0 0 0 0 0 0 0 0 0 0 0
0 0 0 0 0 0 0 0 0 0 0 0 0 0 0 0 0 0 0 0 0 0 0 0 0 0 0 0 0 0 0 0 0 0 0 0 0 0 0 0 0 0 0 0
0 0 0 0 0 0 0 0 0 0 0 0 0 0 0 0 0 0 0 0 0 0 0 0 0 0 0 0 0 0 0 0 0 0 0 0 0 0 0 0 0 0 0 0
0 0 0 0 0 0 0 0 0 0 0 0 0 0 0 0 0 0 0 0 0 0 0 0 0 0 0 0 0 0 0 0 0 0 0 0 0 0 0 0 0 0 0 0
0 0 0 0 0 0 0 0 0 0 0 0 0 0 0 0 0 0 0 0 0 0 0 0 0 0 0 0 0 0 0 0 0 0 0 0 0 0 0 0 0 0 0 0
0 0 0 0 0 0 0 0 0 0 0 0 0 0 0 0 0 0 0 0 0 0 0 0 0 0 0 0 0 0 0 0 0 0 0 0 0 0 0 0 0 0 0 0
0 0 0 0 0 0 0 0 0 0 0 0 0 0 0 0 0 0 0 0 0 0 0 0 0 0 0 0 0 0 0 0 0 0 0 0 0 0 0 0 0 0 0 0
0 0 0 0 0 0 0 0 0 0 0 0 0 0 0 0 0 0 0 0 0 0 0 0 0 0 0 0 0 0 0 0 0 0 0 0 0 0 0 0 0 0 0 0
0 0 0 0 0 0 0 0 0 0 0 0 0 0 0 0 0 0 0 0 0 0 0 0 0 0 0 0 0 0 0 0 0 0 0 0 0 0 0 0 0 0 0 0
0 0 0 0 0 0 0 0 0 0 0 0 0 0 0 0 0 0 0 0 0 0 0 0 0 0 0 0 0 0 0 0 0 0 0 0 0 0 0 0 0 0 0 0
Wind_Speed
2 2 1 1 2 3 4 3 3 2 4 4 3 3 4 5 6 8 9 10 10 10 9 9 9 8 8 7 6 5 5 5 5 6 6 6 6 7 7 7 8 8 7 7
3 3 3 2 2 3 3 2 3 4 4 4 3 3 3 5 7 8 9 9 10 10 10 10 9 9 9 8 8 6 6 6 6 6 6 6 7 7 7 7 8 8 8 8
4 4 5 5 3 5 4 3 5 4 3 5 3 2 3 5 6 8 9 9 9 9 9 9 9 9 9 9 8 7 6 6 6 7 7 7 7 7 8 8 8 8 9 9
3 5 8 3 4 2 4 3 2 2 5 4 3 3 3 4 6 7 8 9 9 9 9 9 9 9 9 8 8 7 7 7 7 7 8 8 8 8 9 9 8 8 9 9
5 6 3 4 5 5 5 4 4 4 5 4 3 4 3 4 5 6 7 8 8 9 9 9 9 9 9 9 8 8 8 9 8 8 8 8 8 8 8 8 9 9 9 9
6 6 5 4 6 3 4 5 6 5 5 4 3 4 1 3 4 5 6 7 8 8 8 8 9 9 9 9 9 9 9 10 10 9 9 9 10 10 8 8 9 9 9 10
8 7 2 6 6 6 7 2 7 6 5 4 2 2 3 2 4 5 6 7 7 7 7 8 9 9 9 10 10 11 10 10 10 10 10 10 10 9 9 8 9 9 10 10
6 8 4 8 7 6 2 7 7 6 4 3 1 1 1 2 4 5 6 7 7 7 7 7 8 9 10 10 11 11 11 10 10 11 10 9 9 9 9 8 9 9 9 9
3 1 6 6 4 3 3 5 5 4 4 3 2 1 2 3 4 5 6 7 7 8 8 8 8 9 11 11 11 11 11 11 11 11 10 10 10 9 8 8 8 8 8 8
4 4 4 5 4 4 3 3 3 4 4 3 2 2 3 3 4 5 6 7 7 8 9 9 10 10 11 11 11 12 12 11 11 11 10 10 8 8 8 7 8 8 8 8
5 4 4 6 6 5 4 4 4 4 3 3 3 3 4 4 5 5 6 7 7 8 9 10 11 11 11 12 12 13 13 12 11 10 10 10 9 8 9 9 8 9 9 9
5 6 6 5 6 6 6 5 5 4 3 3 3 4 5 5 5 6 7 8 8 9 10 11 11 12 11 11 12 13 12 11 9 9 9 9 10 10 9 11 12 13 14 14
2 3 3 3 5 6 6 6 5 5 4 4 4 4 5 6 6 7 7 8 9 10 11 11 12 12 12 12 12 13 13 12 10 9 9 10 10 10 10 9 10 13 14 14
4 4 4 5 6 6 6 5 5 5 5 5 5 5 6 6 7 8 8 9 10 11 11 12 12 12 13 13 13 13 13 12 11 9 9 10 10 10 10 10 10 9 9 11
7 7 6 5 5 6 6 6 6 6 6 5 5 6 6 7 8 8 9 9 10 11 11 12 13 13 13 13 14 14 12 10 10 10 10 10 10 10 10 11 10 10 9 7
6 6 6 7 7 7 7 7 7 7 6 6 6 7 7 8 9 9 9 9 10 11 12 12 13 13 13 13 14 12 11 13 13 11 10 10 10 10 10 10 10 10 9 8
8 8 8 8 8 8 8 8 8 7 7 8 8 8 8 9 9 10 10 10 10 11 12 13 13 13 13 13 14 11 11 12 14 12 10 11 10 10 10 10 10 10 9 9
8 7 7 7 7 7 7 7 7 8 8 8 8 8 9 10 10 11 11 11 11 12 12 12 12 13 14 14 13 11 11 11 11 11 11 11 11 11 11 11 11 12 10 9
6 6 7 7 7 7 7 7 7 7 7 7 8 9 10 10 10 11 11 12 12 13 12 12 13 15 15 14 13 11 12 13 12 12 12 12 12 11 11 11 11 11 10 9
5 5 5 5 6 6 6 6 6 6 7 7 8 9 10 10 10 11 12 12 10 10 13 13 14 14 14 13 14 12 13 13 14 13 12 12 12 12 11 11 11 11 11 10
4 5 5 5 5 6 6 7 7 7 7 7 9 10 11 11 11 11 11 11 11 11 12 14 12 12 12 13 15 13 13 13 13 13 12 12 12 12 12 11 11 11 10 10
5 5 6 6 6 7 6 6 7 7 8 8 9 10 11 11 12 12 12 11 11 11 11 11 11 13 15 18 13 13 13 14 13 12 12 12 12 12 11 12 11 11 10 10
5 6 6 7 7 7 7 7 8 8 9 9 10 11 12 11 10 10 11 10 10 12 12 11 14 19 22 16 13 13 14 14 13 13 13 12 12 12 11 12 11 11 10 10
7 7 7 7 7 8 9 9 9 8 9 10 11 11 11 10 10 10 10 11 12 14 12 13 16 20 20 13 12 13 13 13 13 13 13 12 12 11 11 11 11 10 10 12
8 8 8 8 8 8 9 10 10 10 10 9 11 11 10 9 10 10 11 12 13 13 12 14 18 19 15 12 12 12 12 12 13 13 13 12 11 11 11 11 10 10 10 10
8 7 7 8 8 8 8 8 8 8 8 9 9 9 8 8 9 9 9 11 14 14 13 11 12 13 12 12 12 13 12 13 13 12 12 12 12 12 11 10 13 10 10 10
9 8 7 8 8 8 8 8 9 9 8 9 10 9 9 9 9 9 11 10 11 11 11 11 11 11 11 11 11 12 12 11 12 12 11 11 10 10 10 12 10 9 9 9
Wind_Direction
58 75 148 175 180 192 227 265 254 166 152 132 110 76 47 38 33 28 24 21 18 13 10 6 4 0 357 351 343 329 314 304 298 295 295 284 274 266 264 261 259 256 256 253
165 147 163 185 207 193 199 208 174 155 143 108 111 94 56 39 29 23 17 12 8 6 3 359 357 354 351 347 341 330 318 312 311 301 297 289 280 273 267 262 260 256 253 250
210 172 218 226 221 204 187 187 195 200 143 138 144 108 51 34 26 18 10 3 359 357 356 351 350 347 344 341 337 330 324 320 316 308 299 291 284 277 268 260 255 254 250 248
229 211 237 81 81 165 168 156 167 114 121 150 146 136 78 40 21 11 3 357 354 349 347 345 346 345 340 339 338 335 331 325 320 310 302 296 290 280 273 268 259 252 252 247
231 233 232 164 168 177 188 176 173 165 146 144 137 170 129 46 11 2 355 351 348 345 342 343 345 343 338 340 339 335 332 324 321 313 305 296 288 280 275 271 266 256 251 248
221 236 242 130 136 173 208 190 160 172 160 158 186 233 81 29 360 355 353 348 344 341 341 344 344 339 335 336 338 335 329 322 319 314 306 297 290 285 278 269 264 262 255 249
227 237 230 106 137 176 212 129 145 170 169 177 208 340 34 3 347 346 346 343 339 337 339 339 336 333 331 333 334 331 323 318 314 312 307 300 295 289 281 272 266 262 258 251
215 227 200 131 164 200 88 104 146 163 171 181 174 55 8 333 332 333 336 337 336 334 335 333 331 329 327 329 327 324 318 313 311 310 308 304 298 291 283 276 267 261 258 254
241 24 81 153 160 102 123 146 153 163 169 179 184 233 305 318 324 326 327 330 329 328 326 326 328 326 321 324 323 320 315 312 309 307 306 305 301 294 285 277 269 265 259 256
220 194 168 173 173 171 175 167 165 170 175 190 220 262 293 308 316 321 323 325 322 319 321 325 325 321 318 320 318 316 314 312 310 308 309 308 305 295 287 281 275 270 266 261
227 194 188 198 195 183 174 174 174 182 197 219 244 266 286 296 305 312 316 316 316 316 318 318 319 319 319 319 318 314 313 310 309 309 306 302 299 294 286 280 279 278 274 270
230 200 206 190 183 188 189 191 194 200 217 237 255 268 280 289 298 302 309 313 313 314 312 313 316 317 318 319 316 313 312 310 307 305 302 299 298 296 280 269 270 266 265 267
257 171 204 172 182 194 205 206 210 220 229 243 257 267 277 286 291 296 303 309 311 312 311 311 312 314 317 317 314 310 308 308 305 302 300 298 298 298 297 289 267 259 258 256
205 189 201 198 201 204 209 213 221 232 238 246 258 267 276 283 289 293 299 306 307 307 307 308 309 312 316 316 312 307 307 306 301 296 295 294 294 294 293 293 293 288 270 253
208 214 213 201 199 204 210 215 224 233 241 250 258 265 275 284 289 293 297 301 302 303 305 308 308 310 315 314 310 307 306 304 301 297 292 290 290 291 290 289 288 287 286 275
200 207 206 208 211 214 219 226 235 241 246 254 260 268 278 284 287 288 292 295 298 302 307 308 308 310 313 311 308 305 301 299 296 293 289 288 289 290 290 288 287 285 282 281
203 207 209 214 220 225 230 236 244 248 252 258 264 273 278 281 282 285 289 293 294 297 301 303 306 310 310 306 305 303 302 300 296 290 288 289 289 289 288 285 284 284 281 279
219 222 224 227 229 233 238 241 247 253 258 262 268 271 274 278 283 288 293 295 295 295 298 302 308 311 305 303 304 303 301 298 297 293 290 289 290 288 285 282 282 282 281 277
219 226 232 235 236 238 242 246 250 257 263 265 265 269 274 279 283 289 293 294 295 297 302 307 311 303 302 304 304 297 297 298 296 293 290 287 284 283 281 281 281 280 279 276
218 225 230 235 237 242 249 253 259 261 264 267 268 272 276 280 285 288 290 289 289 294 300 305 305 301 303 305 307 298 296 296 296 294 291 288 286 284 281 279 279 279 276 273
224 227 230 235 241 246 252 256 259 262 267 268 269 274 280 284 287 287 286 286 290 298 302 302 296 297 302 308 305 296 294 295 294 293 291 289 287 285 283 280 278 277 275 273
238 238 239 243 247 253 256 259 261 266 269 271 272 276 281 283 285 284 281 283 290 296 296 295 296 301 306 306 297 293 293 293 293 293 291 288 286 283 281 280 278 277 274 272
248 249 250 252 256 262 264 263 264 266 268 271 274 278 279 283 285 285 286 290 293 298 297 293 300 303 303 299 294 293 293 293 293 293 290 287 284 281 280 280 277 275 272 270
256 253 254 258 262 263 263 267 272 271 271 273 273 276 278 280 279 278 282 287 286 290 290 293 295 298 300 295 293 293 293 293 293 292 291 289 286 283 281 279 277 274 272 270
257 259 260 262 263 264 270 274 275 273 272 273 277 278 276 274 278 284 287 290 291 290 289 293 297 299 297 293 294 293 293 293 293 294 291 289 286 284 283 280 277 276 273 269
258 259 261 260 262 267 269 270 270 272 276 278 280 282 283 282 281 281 282 285 288 289 290 292 296 296 294 295 294 293 293 294 294 292 290 290 287 285 284 283 280 276 273 269
260 258 258 259 259 259 261 263 266 270 274 278 284 287 289 288 285 284 286 288 291 291 292 294 295 295 295 293 292 292 293 295 296 295 295 292 290 286 284 282 280 279 275 270